Precipitable_Water
0.64 0.64 0.63 0.62 0.62 0.61 0.60 0.61 0.61 0.61 0.61 0.61 0.62 0.63 0.62 0.61 0.62 0.62 0.62 0.61 0.60 0.59 0.57 0.54 0.52 0.51 0.50 0.49 0.48 0.46 0.44 0.35 0.32 0.27 0.23 0.23 0.24 0.32 0.36 0.36 0.41 0.49 0.54 0.60 0.62 0.58 0.63 0.69 0.72 0.96 0.94 0.84 0.76 0.65 0.78 0.68 0.76 0.62 0.51 0.39 0.35 0.36 0.35 0.40 0.42 0.49 0.47 0.51 0.59 0.69 0.77 0.78 0.72 0.85 0.95 1.08 0.99 0.97 1.02 1.01 1.08 1.18 1.21 1.23 1.17 1.15 1.23 1.30
0.64 0.63 0.63 0.61 0.62 0.61 0.61 0.61 0.61 0.61 0.61 0.61 0.61 0.62 0.62 0.62 0.63 0.63 0.63 0.63 0.62 0.58 0.56 0.53 0.50 0.50 0.49 0.47 0.47 0.45 0.40 0.33 0.24 0.23 0.20 0.33 0.26 0.32 0.37 0.36 0.44 0.42 0.53 0.47 0.42 0.49 0.58 0.59 0.67 0.85 0.83 0.68 0.66 0.57 0.58 0.62 0.67 0.57 0.42 0.36 0.32 0.38 0.35 0.45 0.46 0.49 0.51 0.50 0.63 0.68 0.76 0.77 0.77 0.86 0.89 0.93 0.83 0.96 0.97 0.99 1.07 1.01 1.13 1.22 1.18 1.14 1.17 1.22
0.64 0.64 0.62 0.61 0.60 0.61 0.61 0.61 0.61 0.61 0.61 0.61 0.62 0.62 0.63 0.63 0.64 0.64 0.64 0.64 0.61 0.58 0.54 0.52 0.51 0.49 0.48 0.48 0.44 0.44 0.38 0.24 0.23 0.15 0.18 0.26 0.29 0.33 0.32 0.40 0.43 0.46 0.42 0.39 0.40 0.45 0.49 0.60 0.74 0.79 0.74 0.58 0.52 0.48 0.51 0.51 0.52 0.43 0.42 0.32 0.33 0.41 0.39 0.47 0.51 0.50 0.61 0.61 0.64 0.68 0.74 0.78 0.75 0.88 0.79 0.81 0.79 0.91 0.85 0.89 0.93 0.91 0.96 1.08 1.11 1.10 1.13 1.18
0.64 0.63 0.61 0.60 0.60 0.61 0.61 0.61 0.62 0.62 0.61 0.61 0.62 0.63 0.64 0.65 0.66 0.66 0.65 0.64 0.62 0.57 0.53 0.52 0.50 0.49 0.48 0.46 0.48 0.47 0.32 0.21 0.12 0.14 0.30 0.31 0.27 0.29 0.27 0.34 0.46 0.45 0.45 0.42 0.39 0.41 0.54 0.61 0.72 0.73 0.57 0.46 0.43 0.45 0.41 0.44 0.49 0.38 0.38 0.33 0.36 0.48 0.45 0.50 0.59 0.59 0.64 0.69 0.68 0.71 0.73 0.74 0.76 0.80 0.81 0.72 0.78 0.74 0.90 1.02 0.99 0.91 0.96 1.06 1.10 1.09 1.13 1.14
0.65 0.63 0.61 0.59 0.59 0.61 0.62 0.63 0.63 0.62 0.61 0.61 0.62 0.63 0.65 0.67 0.67 0.66 0.66 0.65 0.62 0.56 0.53 0.51 0.50 0.49 0.48 0.50 0.43 0.46 0.24 0.10 0.10 0.24 0.41 0.35 0.32 0.28 0.29 0.33 0.42 0.45 0.45 0.39 0.37 0.42 0.53 0.63 0.64 0.63 0.50 0.39 0.41 0.40 0.37 0.40 0.39 0.37 0.43 0.44 0.47 0.57 0.50 0.57 0.64 0.67 0.71 0.75 0.73 0.71 0.69 0.69 0.81 0.82 0.79 0.84 0.80 0.80 0.90 1.02 1.12 1.08 1.09 1.07 1.08 1.10 1.16 1.16
0.63 0.62 0.61 0.59 0.58 0.59 0.61 0.62 0.62 0.62 0.62 0.61 0.62 0.64 0.66 0.67 0.67 0.67 0.67 0.65 0.60 0.54 0.52 0.52 0.51 0.50 0.51 0.51 0.48 0.39 0.20 0.06 0.22 0.32 0.43 0.48 0.34 0.30 0.30 0.34 0.38 0.46 0.40 0.38 0.37 0.42 0.50 0.58 0.61 0.52 0.43 0.38 0.37 0.35 0.37 0.37 0.40 0.35 0.42 0.49 0.57 0.59 0.52 0.63 0.65 0.68 0.73 0.71 0.70 0.69 0.71 0.75 0.74 0.72 0.85 0.81 0.83 0.93 1.07 1.13 1.16 1.18 1.19 1.20 1.20 1.15 1.15 1.16
0.63 0.61 0.58 0.57 0.56 0.58 0.60 0.61 0.62 0.63 0.62 0.61 0.62 0.65 0.68 0.69 0.68 0.64 0.63 0.63 0.56 0.53 0.53 0.51 0.51 0.50 0.49 0.52 0.48 0.32 0.15 0.15 0.22 0.38 0.45 0.42 0.44 0.31 0.33 0.36 0.39 0.38 0.35 0.31 0.33 0.39 0.51 0.56 0.56 0.46 0.40 0.38 0.37 0.35 0.38 0.36 0.41 0.43 0.43 0.56 0.56 0.62 0.58 0.67 0.66 0.72 0.69 0.69 0.64 0.69 0.70 0.62 0.68 0.63 0.84 0.82 0.99 1.06 1.14 1.23 1.24 1.27 1.28 1.24 1.15 1.15 1.14 1.15
0.61 0.59 0.58 0.56 0.55 0.56 0.58 0.60 0.62 0.63 0.62 0.61 0.63 0.66 0.69 0.69 0.67 0.61 0.61 0.58 0.51 0.48 0.47 0.46 0.46 0.45 0.48 0.41 0.30 0.17 0.14 0.14 0.26 0.49 0.42 0.46 0.47 0.38 0.35 0.35 0.34 0.34 0.31 0.30 0.29 0.40 0.53 0.51 0.51 0.46 0.38 0.35 0.36 0.36 0.39 0.37 0.45 0.46 0.50 0.59 0.59 0.64 0.66 0.71 0.73 0.69 0.65 0.62 0.63 0.62 0.60 0.64 0.73 0.68 0.82 0.82 0.97 1.06 1.13 1.26 1.30 1.31 1.27 1.24 1.15 1.17 1.19 1.16
0.59 0.59 0.57 0.55 0.54 0.55 0.57 0.59 0.61 0.63 0.62 0.61 0.63 0.68 0.70 0.69 0.65 0.58 0.56 0.50 0.45 0.45 0.44 0.42 0.41 0.41 0.48 0.40 0.24 0.16 0.12 0.18 0.28 0.43 0.51 0.43 0.46 0.39 0.35 0.29 0.32 0.28 0.29 0.29 0.35 0.50 0.53 0.52 0.47 0.44 0.34 0.38 0.39 0.36 0.38 0.42 0.44 0.53 0.56 0.59 0.59 0.64 0.71 0.72 0.66 0.63 0.61 0.59 0.61 0.62 0.64 0.71 0.71 0.79 0.70 0.81 0.92 1.05 1.14 1.21 1.30 1.30 1.24 1.20 1.21 1.21 1.17 1.18
0.61 0.59 0.57 0.55 0.53 0.53 0.55 0.58 0.60 0.63 0.62 0.61 0.64 0.70 0.70 0.69 0.64 0.56 0.49 0.45 0.46 0.45 0.41 0.39 0.38 0.41 0.36 0.26 0.20 0.11 0.26 0.40 0.44 0.45 0.49 0.52 0.44 0.38 0.31 0.28 0.26 0.27 0.25 0.27 0.32 0.50 0.51 0.51 0.46 0.41 0.42 0.41 0.40 0.36 0.37 0.44 0.46 0.62 0.59 0.62 0.64 0.66 0.70 0.70 0.61 0.63 0.65 0.66 0.73 0.66 0.65 0.61 0.63 0.74 0.54 0.85 0.95 1.05 1.05 1.10 1.23 1.26 1.23 1.22 1.18 1.20 1.20 1.23
0.61 0.58 0.57 0.55 0.54 0.53 0.55 0.56 0.59 0.62 0.62 0.60 0.65 0.71 0.70 0.68 0.63 0.56 0.46 0.46 0.48 0.45 0.40 0.34 0.37 0.36 0.27 0.25 0.16 0.10 0.39 0.48 0.49 0.48 0.50 0.51 0.44 0.31 0.26 0.28 0.27 0.27 0.26 0.29 0.40 0.55 0.54 0.51 0.43 0.40 0.41 0.37 0.40 0.35 0.41 0.60 0.52 0.66 0.68 0.66 0.65 0.71 0.71 0.68 0.68 0.67 0.77 0.71 0.75 0.71 0.60 0.64 0.65 0.71 0.59 0.81 0.97 1.08 1.00 1.04 1.10 1.14 1.17 1.19 1.20 1.20 1.24 1.26
0.60 0.58 0.56 0.55 0.54 0.53 0.54 0.56 0.58 0.61 0.62 0.61 0.66 0.72 0.70 0.68 0.61 0.58 0.45 0.49 0.51 0.48 0.41 0.36 0.37 0.38 0.31 0.21 0.14 0.24 0.31 0.46 0.54 0.47 0.46 0.45 0.37 0.33 0.31 0.29 0.27 0.28 0.27 0.30 0.45 0.55 0.59 0.49 0.42 0.39 0.33 0.41 0.38 0.41 0.48 0.62 0.62 0.65 0.62 0.58 0.62 0.64 0.60 0.66 0.68 0.70 0.74 0.70 0.84 0.78 0.69 0.58 0.59 0.54 0.76 0.87 1.00 1.04 1.03 1.04 1.06 1.08 1.12 1.14 1.17 1.19 1.23 1.27
0.59 0.57 0.56 0.55 0.54 0.53 0.53 0.55 0.58 0.60 0.62 0.61 0.67 0.72 0.71 0.68 0.62 0.60 0.48 0.51 0.55 0.53 0.52 0.47 0.43 0.41 0.29 0.12 0.15 0.28 0.35 0.58 0.57 0.46 0.42 0.43 0.40 0.37 0.31 0.30 0.31 0.31 0.31 0.37 0.48 0.56 0.55 0.49 0.42 0.35 0.37 0.36 0.37 0.33 0.51 0.69 0.65 0.63 0.57 0.59 0.58 0.56 0.56 0.68 0.72 0.70 0.63 0.71 0.91 0.80 0.48 0.46 0.54 0.63 0.78 0.90 0.95 1.01 0.99 0.97 1.05 1.09 1.14 1.18 1.21 1.21 1.27 1.33
0.59 0.57 0.55 0.55 0.55 0.53 0.53 0.54 0.57 0.59 0.61 0.62 0.68 0.72 0.71 0.68 0.63 0.61 0.51 0.52 0.58 0.58 0.62 0.65 0.62 0.42 0.25 0.20 0.22 0.33 0.46 0.64 0.56 0.43 0.37 0.39 0.31 0.29 0.29 0.30 0.33 0.33 0.37 0.48 0.56 0.60 0.55 0.46 0.42 0.37 0.37 0.36 0.37 0.50 0.50 0.63 0.59 0.56 0.61 0.50 0.55 0.55 0.51 0.63 0.68 0.65 0.66 0.72 0.90 0.78 0.51 0.50 0.57 0.67 0.79 0.89 0.97 0.95 0.92 0.95 1.02 1.06 1.13 1.17 1.22 1.23 1.26 1.30
0.58 0.56 0.55 0.55 0.55 0.54 0.53 0.53 0.55 0.58 0.60 0.62 0.70 0.72 0.72 0.68 0.64 0.62 0.57 0.52 0.60 0.64 0.66 0.67 0.70 0.53 0.36 0.39 0.41 0.50 0.64 0.64 0.44 0.40 0.40 0.34 0.30 0.25 0.29 0.30 0.30 0.36 0.47 0.53 0.55 0.59 0.53 0.45 0.37 0.32 0.32 0.41 0.44 0.49 0.41 0.48 0.55 0.57 0.41 0.42 0.49 0.49 0.54 0.61 0.71 0.65 0.64 0.71 0.85 0.69 0.52 0.54 0.64 0.68 0.84 0.90 0.96 0.95 0.89 0.91 0.96 1.05 1.14 1.13 1.17 1.22 1.25 1.30
0.58 0.56 0.54 0.54 0.55 0.54 0.53 0.53 0.55 0.57 0.59 0.62 0.71 0.72 0.73 0.72 0.67 0.64 0.63 0.59 0.61 0.68 0.78 0.65 0.60 0.51 0.36 0.22 0.38 0.63 0.55 0.42 0.37 0.42 0.40 0.40 0.32 0.25 0.28 0.31 0.33 0.37 0.45 0.49 0.58 0.56 0.49 0.42 0.35 0.34 0.33 0.39 0.40 0.42 0.38 0.44 0.48 0.49 0.38 0.41 0.46 0.48 0.56 0.59 0.61 0.68 0.75 0.76 0.80 0.69 0.56 0.64 0.64 0.76 0.82 0.91 0.89 0.94 0.88 0.91 0.97 1.04 1.12 1.15 1.17 1.22 1.25 1.26
0.58 0.56 0.53 0.53 0.55 0.54 0.53 0.52 0.54 0.56 0.58 0.63 0.72 0.73 0.74 0.74 0.70 0.67 0.67 0.64 0.64 0.73 0.66 0.57 0.59 0.53 0.38 0.41 0.46 0.40 0.38 0.44 0.47 0.38 0.36 0.39 0.38 0.36 0.29 0.28 0.30 0.35 0.44 0.47 0.52 0.52 0.45 0.37 0.35 0.32 0.34 0.32 0.38 0.38 0.33 0.30 0.39 0.42 0.44 0.42 0.47 0.42 0.54 0.50 0.64 0.65 0.70 0.70 0.66 0.66 0.63 0.69 0.67 0.81 0.82 0.88 0.92 0.91 0.85 0.87 0.94 1.03 1.10 1.13 1.21 1.26 1.24 1.26
0.58 0.56 0.53 0.52 0.54 0.55 0.53 0.52 0.53 0.56 0.56 0.64 0.72 0.73 0.72 0.75 0.73 0.69 0.67 0.67 0.69 0.67 0.72 0.76 0.61 0.42 0.27 0.37 0.20 0.31 0.45 0.41 0.39 0.38 0.36 0.38 0.38 0.33 0.28 0.27 0.33 0.37 0.40 0.39 0.44 0.43 0.41 0.33 0.31 0.27 0.27 0.29 0.29 0.32 0.28 0.27 0.33 0.34 0.33 0.40 0.43 0.45 0.52 0.49 0.51 0.63 0.64 0.66 0.64 0.68 0.70 0.71 0.73 0.80 0.82 0.81 0.94 0.92 0.86 0.87 0.92 0.98 1.03 1.08 1.17 1.24 1.23 1.25
0.59 0.56 0.55 0.53 0.54 0.54 0.53 0.52 0.52 0.55 0.56 0.67 0.76 0.76 0.79 0.80 0.77 0.68 0.59 0.60 0.49 0.38 0.30 0.34 0.33 0.22 0.24 0.25 0.33 0.36 0.40 0.45 0.44 0.37 0.31 0.33 0.34 0.38 0.36 0.34 0.32 0.33 0.31 0.30 0.31 0.38 0.38 0.33 0.30 0.28 0.23 0.25 0.26 0.27 0.25 0.30 0.32 0.35 0.32 0.37 0.41 0.39 0.45 0.46 0.51 0.61 0.60 0.63 0.60 0.64 0.67 0.71 0.77 0.75 0.83 0.79 0.92 0.92 0.91 0.91 0.92 0.95 0.99 1.02 1.07 1.11 1.14 1.14
0.58 0.57 0.54 0.52 0.52 0.54 0.53 0.52 0.52 0.54 0.57 0.65 0.70 0.68 0.64 0.52 0.49 0.41 0.50 0.52 0.39 0.35 0.38 0.41 0.39 0.41 0.35 0.30 0.27 0.38 0.46 0.47 0.32 0.35 0.35 0.38 0.32 0.30 0.28 0.29 0.31 0.30 0.30 0.24 0.28 0.33 0.36 0.27 0.23 0.23 0.24 0.25 0.25 0.26 0.27 0.26 0.28 0.34 0.33 0.35 0.37 0.37 0.42 0.48 0.52 0.64 0.61 0.58 0.58 0.66 0.68 0.74 0.76 0.74 0.81 0.83 0.83 0.92 0.92 0.85 0.88 0.90 0.91 0.93 0.98 1.02 1.05 1.09
0.57 0.58 0.56 0.53 0.52 0.53 0.52 0.52 0.51 0.54 0.61 0.65 0.65 0.54 0.36 0.36 0.26 0.27 0.33 0.35 0.42 0.45 0.38 0.37 0.38 0.37 0.39 0.37 0.36 0.31 0.30 0.33 0.37 0.32 0.35 0.37 0.34 0.28 0.26 0.29 0.27 0.24 0.27 0.28 0.27 0.31 0.33 0.26 0.24 0.24 0.26 0.26 0.26 0.26 0.29 0.29 0.28 0.29 0.30 0.29 0.32 0.35 0.37 0.45 0.53 0.56 0.64 0.50 0.62 0.66 0.69 0.74 0.76 0.77 0.80 0.86 0.74 0.77 0.84 0.86 0.85 0.85 0.87 0.88 0.91 0.94 0.98 1.05
0.57 0.58 0.56 0.52 0.52 0.52 0.51 0.51 0.51 0.56 0.65 0.66 0.60 0.49 0.47 0.49 0.51 0.54 0.44 0.27 0.38 0.42 0.40 0.40 0.42 0.39 0.46 0.41 0.40 0.38 0.32 0.27 0.29 0.31 0.41 0.37 0.31 0.22 0.27 0.25 0.23 0.20 0.25 0.28 0.27 0.24 0.24 0.23 0.26 0.27 0.29 0.31 0.32 0.29 0.28 0.27 0.26 0.26 0.26 0.27 0.27 0.29 0.44 0.49 0.50 0.54 0.59 0.47 0.60 0.71 0.64 0.75 0.79 0.80 0.82 0.81 0.74 0.76 0.80 0.87 0.90 0.87 0.85 0.84 0.87 0.91 0.95 0.98
0.57 0.58 0.56 0.53 0.51 0.52 0.50 0.51 0.50 0.60 0.63 0.58 0.54 0.51 0.51 0.59 0.67 0.66 0.54 0.37 0.28 0.38 0.36 0.38 0.34 0.37 0.37 0.43 0.39 0.37 0.26 0.24 0.22 0.29 0.31 0.34 0.27 0.26 0.26 0.24 0.22 0.23 0.25 0.24 0.20 0.19 0.18 0.20 0.27 0.28 0.31 0.29 0.27 0.27 0.27 0.28 0.28 0.26 0.26 0.26 0.25 0.29 0.32 0.34 0.43 0.48 0.56 0.46 0.56 0.69 0.61 0.78 0.83 0.85 0.78 0.84 0.81 0.85 0.93 0.89 0.93 0.96 0.89 0.82 0.81 0.87 0.94 0.93
0.55 0.58 0.56 0.51 0.50 0.51 0.50 0.50 0.54 0.58 0.60 0.50 0.45 0.49 0.62 0.65 0.67 0.63 0.46 0.30 0.25 0.33 0.34 0.38 0.38 0.37 0.34 0.31 0.36 0.30 0.27 0.25 0.26 0.24 0.34 0.32 0.24 0.31 0.25 0.23 0.23 0.24 0.20 0.19 0.19 0.18 0.17 0.22 0.29 0.30 0.29 0.27 0.25 0.27 0.29 0.29 0.26 0.27 0.26 0.26 0.27 0.31 0.32 0.30 0.49 0.48 0.56 0.54 0.66 0.67 0.59 0.71 0.71 0.63 0.66 0.78 0.90 0.83 0.79 0.82 0.84 0.91 0.96 0.95 0.91 0.90 0.93 0.91
0.53 0.55 0.55 0.50 0.47 0.53 0.47 0.51 0.53 0.53 0.50 0.45 0.46 0.58 0.66 0.64 0.66 0.67 0.41 0.34 0.30 0.26 0.41 0.36 0.39 0.37 0.38 0.45 0.38 0.28 0.30 0.29 0.26 0.29 0.31 0.29 0.26 0.26 0.24 0.24 0.23 0.20 0.19 0.16 0.18 0.20 0.24 0.29 0.30 0.28 0.27 0.27 0.29 0.29 0.30 0.30 0.28 0.28 0.28 0.28 0.27 0.27 0.32 0.32 0.51 0.50 0.42 0.45 0.51 0.55 0.43 0.52 0.70 0.66 0.60 0.69 0.71 0.68 0.75 0.70 0.71 0.76 0.83 0.94 0.94 0.97 1.02 1.05
0.51 0.53 0.53 0.50 0.48 0.50 0.48 0.44 0.49 0.42 0.45 0.43 0.53 0.67 0.68 0.61 0.67 0.68 0.45 0.25 0.17 0.27 0.28 0.22 0.35 0.29 0.41 0.31 0.32 0.31 0.30 0.23 0.28 0.30 0.31 0.29 0.34 0.23 0.26 0.22 0.23 0.16 0.17 0.17 0.22 0.27 0.29 0.31 0.30 0.27 0.28 0.31 0.31 0.30 0.31 0.29 0.28 0.27 0.28 0.29 0.31 0.33 0.36 0.42 0.46 0.42 0.34 0.35 0.55 0.56 0.41 0.40 0.57 0.65 0.64 0.68 0.64 0.62 0.73 0.70 0.70 0.76 0.80 0.83 0.86 0.92 0.98 1.02
0.49 0.50 0.51 0.48 0.47 0.51 0.40 0.32 0.47 0.42 0.41 0.50 0.66 0.72 0.67 0.58 0.78 0.64 0.32 0.27 0.15 0.24 0.19 0.34 0.28 0.36 0.36 0.33 0.30 0.35 0.16 0.19 0.30 0.35 0.28 0.35 0.30 0.30 0.21 0.18 0.18 0.26 0.24 0.26 0.27 0.26 0.31 0.30 0.30 0.31 0.31 0.30 0.28 0.27 0.30 0.28 0.26 0.27 0.41 0.35 0.32 0.34 0.41 0.48 0.45 0.36 0.38 0.49 0.69 0.65 0.55 0.41 0.45 0.63 0.70 0.68 0.64 0.59 0.64 0.66 0.70 0.74 0.78 0.79 0.82 0.90 0.99 1.05
0.47 0.48 0.48 0.47 0.45 0.48 0.45 0.45 0.42 0.37 0.42 0.51 0.62 0.66 0.60 0.65 0.75 0.64 0.33 0.17 0.11 0.27 0.21 0.25 0.27 0.42 0.33 0.32 0.34 0.24 0.27 0.27 0.20 0.27 0.29 0.31 0.33 0.23 0.23 0.20 0.18 0.26 0.28 0.28 0.22 0.30 0.30 0.29 0.30 0.29 0.29 0.27 0.27 0.28 0.31 0.30 0.29 0.39 0.41 0.37 0.37 0.40 0.44 0.44 0.39 0.39 0.53 0.55 0.56 0.54 0.58 0.39 0.34 0.46 0.63 0.70 0.60 0.61 0.58 0.64 0.66 0.72 0.78 0.81 0.82 0.86 0.94 1.05
0.45 0.46 0.47 0.46 0.44 0.45 0.52 0.46 0.44 0.39 0.49 0.60 0.61 0.58 0.60 0.76 0.68 0.39 0.26 0.17 0.31 0.22 0.34 0.23 0.35 0.32 0.30 0.34 0.28 0.29 0.28 0.26 0.20 0.26 0.32 0.34 0.33 0.27 0.23 0.27 0.27 0.30 0.31 0.30 0.28 0.29 0.32 0.32 0.32 0.31 0.28 0.26 0.33 0.32 0.33 0.31 0.29 0.41 0.49 0.50 0.49 0.52 0.49 0.46 0.42 0.44 0.49 0.43 0.36 0.46 0.58 0.35 0.32 0.47 0.58 0.66 0.56 0.58 0.57 0.61 0.67 0.71 0.77 0.81 0.82 0.86 0.93 1.04
0.44 0.44 0.46 0.46 0.42 0.46 0.47 0.51 0.41 0.41 0.54 0.60 0.56 0.58 0.73 0.68 0.52 0.24 0.17 0.11 0.28 0.18 0.22 0.28 0.25 0.23 0.29 0.25 0.25 0.26 0.24 0.23 0.31 0.25 0.29 0.27 0.29 0.32 0.33 0.38 0.33 0.32 0.30 0.33 0.30 0.31 0.33 0.36 0.39 0.32 0.30 0.34 0.32 0.33 0.33 0.33 0.35 0.45 0.46 0.41 0.41 0.41 0.44 0.44 0.44 0.44 0.41 0.32 0.32 0.35 0.47 0.42 0.26 0.32 0.42 0.53 0.48 0.47 0.57 0.66 0.73 0.79 0.83 0.87 0.87 0.89 0.95 1.02
0.42 0.43 0.44 0.47 0.37 0.40 0.41 0.35 0.40 0.50 0.53 0.55 0.56 0.68 0.69 0.56 0.35 0.23 0.15 0.24 0.26 0.26 0.23 0.24 0.22 0.27 0.25 0.23 0.21 0.25 0.24 0.23 0.27 0.26 0.27 0.33 0.31 0.32 0.32 0.31 0.34 0.29 0.29 0.28 0.27 0.28 0.31 0.33 0.32 0.35 0.34 0.34 0.34 0.31 0.34 0.37 0.37 0.39 0.36 0.36 0.36 0.35 0.38 0.36 0.36 0.38 0.28 0.24 0.35 0.34 0.41 0.46 0.28 0.28 0.36 0.50 0.60 0.59 0.58 0.65 0.77 0.78 0.83 0.88 0.92 0.92 0.97 1.04
0.41 0.42 0.43 0.42 0.42 0.46 0.33 0.31 0.44 0.51 0.52 0.53 0.60 0.62 0.56 0.36 0.27 0.17 0.16 0.32 0.19 0.24 0.20 0.20 0.23 0.24 0.24 0.25 0.23 0.21 0.21 0.23 0.29 0.28 0.27 0.28 0.28 0.27 0.27 0.25 0.26 0.23 0.23 0.24 0.23 0.28 0.27 0.29 0.33 0.33 0.35 0.33 0.31 0.29 0.33 0.35 0.35 0.33 0.34 0.33 0.26 0.29 0.26 0.26 0.29 0.22 0.21 0.22 0.41 0.38 0.35 0.32 0.31 0.30 0.35 0.41 0.53 0.73 0.68 0.69 0.80 0.88 0.85 0.92 0.95 0.96 0.99 1.05
0.41 0.41 0.41 0.39 0.43 0.40 0.39 0.38 0.48 0.53 0.52 0.45 0.52 0.60 0.44 0.36 0.22 0.20 0.20 0.23 0.25 0.29 0.23 0.24 0.22 0.23 0.24 0.23 0.22 0.21 0.24 0.21 0.28 0.29 0.31 0.30 0.29 0.28 0.29 0.29 0.28 0.26 0.21 0.23 0.26 0.23 0.27 0.33 0.31 0.32 0.34 0.35 0.31 0.26 0.27 0.26 0.29 0.28 0.28 0.28 0.25 0.25 0.21 0.20 0.25 0.24 0.25 0.32 0.34 0.30 0.39 0.23 0.27 0.31 0.39 0.39 0.43 0.55 0.76 0.68 0.75 0.89 0.98 0.98 0.99 1.01 1.03 1.08
0.40 0.41 0.36 0.39 0.40 0.40 0.41 0.48 0.45 0.46 0.41 0.41 0.48 0.48 0.41 0.30 0.23 0.34 0.24 0.24 0.35 0.35 0.29 0.23 0.23 0.24 0.24 0.21 0.23 0.23 0.20 0.26 0.27 0.29 0.31 0.28 0.28 0.25 0.27 0.30 0.29 0.27 0.28 0.27 0.23 0.22 0.23 0.22 0.28 0.29 0.26 0.33 0.30 0.29 0.29 0.28 0.28 0.28 0.31 0.29 0.29 0.27 0.24 0.21 0.22 0.23 0.24 0.26 0.37 0.40 0.24 0.20 0.19 0.32 0.48 0.49 0.47 0.53 0.66 0.75 0.75 0.79 0.94 1.07 1.12 1.06 1.04 1.09
0.40 0.37 0.40 0.41 0.42 0.45 0.45 0.46 0.51 0.50 0.42 0.43 0.46 0.40 0.30 0.26 0.28 0.27 0.21 0.25 0.32 0.37 0.30 0.29 0.22 0.22 0.22 0.23 0.25 0.23 0.23 0.22 0.28 0.30 0.28 0.28 0.25 0.26 0.25 0.26 0.29 0.29 0.29 0.25 0.25 0.25 0.24 0.25 0.29 0.31 0.35 0.32 0.30 0.33 0.33 0.31 0.30 0.32 0.34 0.35 0.30 0.29 0.32 0.23 0.34 0.27 0.26 0.27 0.31 0.31 0.23 0.28 0.27 0.57 0.52 0.45 0.49 0.50 0.53 0.62 0.74 0.77 0.81 0.92 1.03 1.07 1.01 1.05
0.36 0.34 0.40 0.38 0.42 0.49 0.49 0.51 0.46 0.47 0.41 0.42 0.40 0.34 0.28 0.32 0.30 0.28 0.36 0.40 0.39 0.36 0.38 0.28 0.25 0.20 0.21 0.21 0.24 0.22 0.25 0.26 0.26 0.28 0.27 0.27 0.27 0.26 0.27 0.27 0.27 0.28 0.26 0.23 0.28 0.23 0.28 0.25 0.33 0.33 0.34 0.32 0.32 0.33 0.33 0.34 0.25 0.32 0.32 0.28 0.33 0.40 0.33 0.33 0.28 0.30 0.29 0.26 0.22 0.36 0.32 0.32 0.35 0.31 0.31 0.38 0.40 0.42 0.48 0.54 0.57 0.65 0.74 0.80 0.90 1.04 1.10 1.10
0.31 0.34 0.32 0.41 0.44 0.55 0.56 0.52 0.48 0.41 0.39 0.43 0.36 0.30 0.34 0.36 0.44 0.38 0.43 0.37 0.41 0.38 0.36 0.24 0.21 0.20 0.19 0.19 0.21 0.22 0.23 0.25 0.25 0.25 0.23 0.27 0.25 0.27 0.27 0.27 0.29 0.28 0.28 0.26 0.28 0.28 0.24 0.28 0.33 0.30 0.28 0.32 0.35 0.34 0.36 0.35 0.37 0.34 0.28 0.32 0.39 0.39 0.39 0.32 0.27 0.36 0.28 0.23 0.28 0.35 0.29 0.27 0.28 0.25 0.42 0.42 0.32 0.37 0.42 0.45 0.54 0.62 0.71 0.74 0.81 0.96 1.08 1.14
0.32 0.31 0.33 0.37 0.48 0.58 0.63 0.57 0.46 0.37 0.38 0.42 0.34 0.34 0.43 0.36 0.42 0.39 0.43 0.40 0.42 0.41 0.37 0.31 0.28 0.24 0.21 0.20 0.20 0.21 0.24 0.20 0.23 0.24 0.24 0.25 0.23 0.28 0.27 0.27 0.29 0.28 0.28 0.29 0.27 0.30 0.28 0.25 0.30 0.31 0.31 0.32 0.34 0.33 0.32 0.36 0.39 0.34 0.32 0.41 0.30 0.28 0.26 0.33 0.31 0.24 0.26 0.24 0.25 0.30 0.30 0.24 0.27 0.26 0.36 0.39 0.37 0.37 0.42 0.46 0.48 0.54 0.64 0.71 0.80 0.92 1.09 1.19
0.35 0.32 0.30 0.44 0.58 0.62 0.65 0.59 0.42 0.33 0.36 0.36 0.35 0.32 0.41 0.41 0.46 0.42 0.44 0.46 0.44 0.41 0.35 0.37 0.37 0.28 0.27 0.21 0.22 0.23 0.23 0.19 0.24 0.22 0.22 0.25 0.22 0.28 0.27 0.27 0.27 0.28 0.29 0.29 0.24 0.31 0.28 0.23 0.30 0.35 0.30 0.32 0.32 0.30 0.26 0.30 0.36 0.39 0.40 0.36 0.38 0.36 0.33 0.36 0.32 0.31 0.28 0.20 0.21 0.22 0.28 0.22 0.34 0.30 0.34 0.29 0.30 0.31 0.36 0.47 0.42 0.50 0.58 0.69 0.79 0.89 1.00 1.09
0.31 0.25 0.33 0.51 0.64 0.64 0.68 0.53 0.35 0.32 0.34 0.31 0.34 0.35 0.44 0.39 0.41 0.44 0.45 0.45 0.43 0.40 0.40 0.39 0.35 0.30 0.25 0.27 0.24 0.22 0.23 0.22 0.23 0.23 0.22 0.28 0.24 0.32 0.27 0.29 0.28 0.27 0.28 0.27 0.27 0.29 0.27 0.26 0.26 0.33 0.34 0.30 0.26 0.29 0.27 0.31 0.30 0.31 0.32 0.33 0.35 0.34 0.39 0.35 0.39 0.29 0.28 0.25 0.23 0.22 0.20 0.24 0.34 0.41 0.33 0.30 0.30 0.32 0.36 0.42 0.47 0.50 0.57 0.68 0.80 0.88 0.97 1.04
0.34 0.23 0.28 0.52 0.60 0.63 0.61 0.47 0.30 0.27 0.31 0.39 0.42 0.43 0.42 0.38 0.40 0.43 0.45 0.46 0.46 0.47 0.43 0.41 0.40 0.32 0.29 0.26 0.26 0.27 0.24 0.23 0.23 0.23 0.23 0.26 0.24 0.24 0.28 0.28 0.28 0.27 0.28 0.27 0.25 0.28 0.26 0.28 0.22 0.32 0.28 0.24 0.26 0.32 0.34 0.38 0.35 0.34 0.33 0.33 0.34 0.33 0.30 0.27 0.29 0.37 0.33 0.28 0.23 0.23 0.21 0.25 0.35 0.38 0.33 0.31 0.34 0.38 0.39 0.42 0.49 0.55 0.58 0.66 0.75 0.85 0.94 1.00
0.26 0.21 0.31 0.56 0.64 0.62 0.56 0.32 0.29 0.34 0.36 0.36 0.39 0.42 0.42 0.45 0.41 0.42 0.42 0.44 0.45 0.43 0.49 0.43 0.43 0.40 0.36 0.29 0.30 0.28 0.25 0.23 0.24 0.24 0.24 0.23 0.26 0.25 0.32 0.30 0.28 0.28 0.26 0.24 0.24 0.28 0.27 0.30 0.23 0.28 0.28 0.28 0.31 0.36 0.38 0.41 0.40 0.38 0.36 0.34 0.38 0.37 0.35 0.31 0.25 0.34 0.34 0.32 0.31 0.28 0.23 0.23 0.41 0.38 0.36 0.39 0.44 0.42 0.49 0.48 0.52 0.59 0.64 0.70 0.76 0.84 0.91 0.96
0.27 0.25 0.36 0.54 0.68 0.59 0.49 0.38 0.40 0.44 0.40 0.46 0.50 0.46 0.48 0.44 0.41 0.42 0.38 0.40 0.38 0.43 0.42 0.42 0.43 0.40 0.39 0.36 0.33 0.30 0.26 0.24 0.25 0.23 0.26 0.25 0.27 0.27 0.32 0.32 0.30 0.28 0.27 0.27 0.27 0.35 0.31 0.30 0.25 0.25 0.37 0.35 0.35 0.38 0.37 0.37 0.39 0.36 0.36 0.37 0.35 0.33 0.35 0.35 0.35 0.39 0.35 0.37 0.30 0.29 0.24 0.26 0.42 0.47 0.44 0.43 0.45 0.45 0.48 0.52 0.56 0.64 0.68 0.72 0.77 0.82 0.87 0.92
0.28 0.28 0.33 0.45 0.65 0.61 0.46 0.38 0.38 0.37 0.37 0.44 0.44 0.44 0.45 0.43 0.40 0.39 0.36 0.37 0.35 0.39 0.40 0.42 0.46 0.46 0.43 0.39 0.36 0.31 0.31 0.26 0.30 0.30 0.27 0.29 0.28 0.36 0.33 0.32 0.31 0.29 0.27 0.31 0.27 0.33 0.24 0.26 0.24 0.26 0.28 0.28 0.31 0.31 0.32 0.37 0.36 0.33 0.33 0.36 0.36 0.37 0.37 0.38 0.40 0.41 0.32 0.33 0.34 0.29 0.23 0.29 0.46 0.49 0.44 0.45 0.43 0.44 0.48 0.52 0.57 0.64 0.72 0.75 0.79 0.81 0.86 0.92
0.34 0.34 0.30 0.41 0.61 0.56 0.42 0.48 0.46 0.41 0.41 0.42 0.40 0.38 0.39 0.39 0.41 0.40 0.38 0.36 0.38 0.38 0.38 0.41 0.47 0.47 0.44 0.41 0.37 0.37 0.37 0.37 0.31 0.31 0.39 0.32 0.33 0.36 0.34 0.34 0.34 0.31 0.30 0.40 0.38 0.37 0.26 0.33 0.25 0.23 0.22 0.18 0.19 0.18 0.22 0.27 0.28 0.32 0.34 0.35 0.38 0.37 0.37 0.35 0.32 0.36 0.29 0.33 0.35 0.30 0.27 0.32 0.48 0.51 0.46 0.47 0.46 0.47 0.50 0.54 0.59 0.62 0.71 0.79 0.85 0.88 0.91 0.93
0.34 0.34 0.29 0.35 0.47 0.53 0.52 0.58 0.52 0.44 0.44 0.43 0.37 0.39 0.39 0.37 0.40 0.44 0.41 0.40 0.40 0.40 0.39 0.43 0.47 0.49 0.46 0.44 0.38 0.35 0.34 0.36 0.36 0.35 0.32 0.34 0.35 0.37 0.42 0.38 0.37 0.36 0.47 0.40 0.39 0.36 0.30 0.38 0.30 0.24 0.23 0.22 0.24 0.26 0.31 0.33 0.33 0.28 0.31 0.34 0.36 0.37 0.38 0.38 0.37 0.36 0.33 0.43 0.35 0.34 0.31 0.31 0.35 0.44 0.47 0.48 0.48 0.44 0.44 0.52 0.55 0.58 0.63 0.74 0.85 0.89 0.93 0.96
0.35 0.35 0.36 0.36 0.37 0.46 0.50 0.53 0.51 0.48 0.42 0.44 0.37 0.38 0.35 0.37 0.42 0.41 0.44 0.37 0.42 0.41 0.40 0.40 0.45 0.43 0.45 0.44 0.41 0.39 0.39 0.37 0.37 0.38 0.36 0.36 0.41 0.44 0.46 0.52 0.45 0.41 0.46 0.39 0.39 0.39 0.38 0.30 0.31 0.28 0.27 0.27 0.34 0.45 0.39 0.35 0.33 0.35 0.34 0.35 0.36 0.36 0.37 0.37 0.35 0.36 0.46 0.39 0.32 0.38 0.39 0.34 0.33 0.38 0.44 0.46 0.48 0.47 0.49 0.51 0.55 0.67 0.64 0.66 0.75 0.84 0.89 0.94
0.37 0.42 0.45 0.47 0.41 0.37 0.38 0.44 0.50 0.49 0.48 0.45 0.46 0.42 0.39 0.38 0.38 0.39 0.43 0.43 0.43 0.46 0.38 0.39 0.42 0.46 0.47 0.47 0.47 0.39 0.41 0.40 0.40 0.35 0.40 0.43 0.41 0.43 0.44 0.49 0.51 0.55 0.47 0.41 0.43 0.39 0.35 0.28 0.32 0.30 0.30 0.35 0.34 0.35 0.36 0.35 0.36 0.38 0.38 0.38 0.35 0.35 0.37 0.35 0.37 0.40 0.46 0.36 0.32 0.42 0.46 0.42 0.39 0.40 0.45 0.48 0.49 0.45 0.44 0.46 0.53 0.61 0.69 0.69 0.69 0.74 0.79 0.85
0.40 0.41 0.46 0.52 0.43 0.46 0.46 0.48 0.48 0.48 0.47 0.47 0.47 0.44 0.40 0.39 0.39 0.41 0.43 0.42 0.41 0.46 0.42 0.38 0.41 0.46 0.48 0.48 0.46 0.45 0.45 0.38 0.37 0.45 0.45 0.41 0.39 0.41 0.40 0.42 0.46 0.51 0.50 0.46 0.44 0.51 0.40 0.33 0.42 0.37 0.34 0.35 0.34 0.33 0.34 0.32 0.34 0.34 0.36 0.38 0.37 0.36 0.37 0.38 0.39 0.42 0.46 0.43 0.43 0.43 0.51 0.43 0.42 0.42 0.46 0.45 0.46 0.44 0.45 0.47 0.46 0.47 0.50 0.59 0.64 0.65 0.71 0.80
0.30 0.34 0.39 0.49 0.47 0.47 0.48 0.46 0.46 0.44 0.42 0.47 0.42 0.45 0.44 0.42 0.39 0.40 0.44 0.44 0.42 0.43 0.48 0.42 0.42 0.44 0.47 0.48 0.46 0.48 0.53 0.50 0.56 0.46 0.46 0.45 0.44 0.45 0.42 0.43 0.45 0.45 0.48 0.44 0.43 0.47 0.37 0.44 0.39 0.39 0.34 0.34 0.35 0.35 0.35 0.35 0.35 0.33 0.36 0.39 0.39 0.39 0.39 0.40 0.40 0.43 0.47 0.44 0.44 0.44 0.44 0.41 0.45 0.47 0.51 0.49 0.44 0.44 0.41 0.37 0.37 0.40 0.45 0.52 0.58 0.60 0.64 0.69
0.43 0.46 0.46 0.39 0.42 0.44 0.48 0.47 0.45 0.44 0.42 0.42 0.42 0.43 0.44 0.43 0.41 0.43 0.43 0.48 0.47 0.44 0.44 0.41 0.43 0.44 0.47 0.49 0.49 0.48 0.52 0.51 0.52 0.52 0.52 0.47 0.46 0.51 0.46 0.48 0.49 0.44 0.43 0.44 0.43 0.48 0.39 0.50 0.44 0.39 0.32 0.35 0.36 0.35 0.36 0.36 0.36 0.36 0.37 0.38 0.38 0.38 0.36 0.40 0.40 0.46 0.43 0.42 0.45 0.45 0.41 0.40 0.46 0.50 0.56 0.52 0.46 0.40 0.34 0.33 0.35 0.41 0.46 0.48 0.52 0.59 0.65 0.71
0.48 0.50 0.48 0.42 0.37 0.39 0.41 0.46 0.47 0.41 0.40 0.47 0.47 0.44 0.44 0.43 0.45 0.46 0.40 0.46 0.50 0.51 0.51 0.48 0.48 0.45 0.44 0.47 0.47 0.48 0.53 0.54 0.55 0.57 0.57 0.57 0.57 0.56 0.53 0.53 0.51 0.50 0.44 0.43 0.47 0.44 0.41 0.47 0.38 0.38 0.31 0.34 0.40 0.40 0.37 0.35 0.35 0.34 0.35 0.37 0.39 0.40 0.41 0.44 0.45 0.48 0.47 0.47 0.42 0.39 0.40 0.47 0.49 0.50 0.42 0.39 0.38 0.38 0.42 0.47 0.44 0.44 0.47 0.50 0.54 0.59 0.66 0.72
Wind_Speed
11 12 12 12 12 12 12 12 12 13 13 13 13 14 14 13 13 13 13 13 12 12 11 11 11 10 10 9 8 7 7 6 6 6 7 6 5 6 6 7 9 10 9 9 9 9 8 8 8 7 7 6 5 6 7 7 7 6 5 6 6 6 7 7 6 6 7 7 7 7 6 6 6 7 7 7 8 8 8 7 7 7 8 9 12 14 13 12
12 12 12 12 13 13 13 13 13 13 13 14 14 14 14 14 13 13 13 13 12 11 11 11 10 10 9 8 7 7 6 6 6 8 8 7 6 7 7 8 10 10 10 10 10 10 8 8 9 9 7 6 6 7 8 8 7 6 5 6 6 6 7 7 7 7 6 7 7 6 6 6 6 6 5 5 6 7 6 7 8 9 9 11 13 14 13 13
13 13 13 13 13 13 13 14 14 14 14 14 14 14 14 14 14 14 13 12 12 11 11 10 10 9 8 8 7 6 6 6 7 8 8 8 8 8 8 10 11 11 10 9 9 9 7 8 10 8 6 6 6 7 8 9 7 6 4 5 6 7 7 6 6 6 5 7 8 7 6 6 6 5 4 5 6 6 5 6 7 9 10 11 12 13 13 12
14 14 14 14 14 14 14 14 14 14 14 14 14 14 15 15 14 14 13 12 11 10 10 9 9 8 8 7 6 5 5 5 6 6 5 7 9 9 10 11 11 11 10 9 9 9 7 8 9 7 6 6 7 7 8 8 6 6 4 6 8 7 7 6 5 5 6 8 7 7 7 7 6 5 5 5 5 5 5 5 6 9 11 11 12 13 12 12
15 15 15 15 15 15 15 15 15 14 14 14 14 15 15 15 15 14 13 12 10 10 9 9 8 7 7 6 5 5 4 4 3 4 4 7 9 10 11 11 12 11 10 9 9 9 9 9 8 7 6 7 8 8 8 8 6 6 6 8 8 6 7 7 7 7 7 8 8 7 7 7 6 6 6 4 4 4 4 5 7 9 11 11 12 12 12 11
16 16 16 16 15 15 15 15 15 15 15 15 15 15 15 15 14 13 12 11 10 9 9 8 8 7 6 6 5 5 5 3 1 3 4 7 9 11 12 12 12 11 10 10 10 10 10 10 9 7 7 7 8 8 8 8 5 6 7 7 7 6 8 8 9 9 9 9 8 7 7 7 6 6 6 6 6 5 5 7 9 10 11 11 11 12 12 11
17 16 16 16 16 16 16 15 15 15 15 15 15 15 15 14 14 13 12 11 10 9 9 9 8 8 7 6 5 6 7 5 1 3 5 7 9 11 13 13 12 12 11 11 10 10 10 10 9 8 7 8 8 8 9 8 6 6 7 7 7 8 10 10 10 10 9 9 9 8 7 6 6 6 6 7 7 6 7 9 10 11 11 11 11 11 11 10
17 17 17 17 17 16 16 16 15 15 15 15 15 15 14 14 13 12 11 10 10 10 10 10 9 9 8 7 7 7 9 6 3 3 5 7 9 11 13 13 12 12 12 11 11 11 11 10 10 9 8 8 8 9 10 9 7 7 8 8 9 10 11 11 10 11 10 10 9 8 8 7 7 7 7 8 7 8 9 9 10 11 11 11 10 10 10 9
18 18 17 17 17 17 17 16 16 16 16 15 15 15 14 13 12 11 10 10 10 10 10 10 10 10 9 8 8 7 8 6 4 4 5 7 9 12 13 13 13 12 12 11 11 11 10 10 10 8 8 8 8 10 10 8 7 8 9 9 10 11 11 11 11 11 10 9 9 8 8 8 8 8 8 8 8 9 10 10 10 10 10 10 9 9 9 8
18 18 18 18 17 17 17 17 16 16 16 15 15 14 14 13 12 10 10 9 9 9 9 10 10 11 11 9 9 8 6 6 6 5 5 8 10 13 14 13 13 13 12 12 12 11 10 10 10 8 8 9 9 10 9 7 8 9 10 11 12 12 11 10 11 11 10 9 9 8 9 8 6 6 7 8 9 10 10 11 10 9 9 8 9 8 8 7
18 18 18 18 18 17 17 17 17 16 16 15 15 14 13 12 11 10 9 9 9 8 8 9 10 11 11 11 11 8 6 7 6 6 6 8 10 13 14 13 14 13 12 12 12 11 10 10 11 9 8 9 10 10 9 8 10 11 11 12 12 11 10 10 11 10 9 9 9 9 9 8 6 7 8 9 9 9 10 10 10 9 9 8 8 7 7 6
18 18 18 18 18 18 17 17 17 17 16 15 15 14 13 11 11 10 10 9 9 8 7 8 10 11 11 12 12 9 7 7 7 7 8 9 10 12 13 13 14 13 12 13 12 12 10 11 11 9 8 9 10 10 10 10 11 11 11 11 12 11 10 9 9 8 8 8 7 7 8 8 8 8 9 9 8 8 9 10 10 10 9 9 8 7 6 6
18 18 18 18 18 18 17 17 17 17 16 16 15 14 13 11 10 10 10 10 9 8 8 8 9 10 11 11 12 10 8 8 8 8 9 9 9 11 12 13 13 12 12 13 13 12 11 11 10 9 9 9 10 10 10 11 11 10 10 10 11 10 9 8 7 7 7 6 5 4 6 7 7 8 9 8 8 8 8 9 9 9 9 8 8 7 6 6
19 18 18 18 18 18 18 17 17 17 16 16 15 14 13 11 11 11 11 10 10 9 9 10 9 11 11 11 11 11 10 9 9 10 10 10 10 11 13 13 13 12 12 12 12 12 11 10 10 10 9 9 11 12 11 11 10 9 9 10 10 8 8 8 7 7 6 5 3 3 5 7 7 8 8 8 8 7 7 8 9 9 8 8 7 7 7 6
19 19 19 18 18 18 18 17 17 17 17 16 15 15 13 12 12 11 11 11 11 10 10 10 10 11 12 11 12 12 11 11 11 11 11 11 12 12 13 13 13 12 12 12 12 12 11 11 11 11 10 10 13 13 12 10 9 9 9 10 10 7 8 8 7 7 4 4 2 2 4 6 6 8 8 7 7 7 7 7 8 8 8 7 7 6 6 6
20 20 19 18 18 18 18 18 17 17 17 16 16 15 14 13 12 12 12 12 12 11 11 11 11 11 12 11 13 13 13 12 12 12 12 12 12 12 14 14 13 13 13 12 12 12 11 10 10 10 12 12 13 12 12 10 9 10 10 10 10 8 8 8 8 7 5 3 2 1 3 5 5 7 7 7 7 7 7 7 7 8 8 7 6 6 5 5
21 20 20 19 18 18 18 18 18 17 17 16 16 16 15 14 13 13 13 14 13 12 12 11 11 12 11 12 14 15 15 13 12 13 13 13 12 13 15 14 13 13 13 12 12 12 11 10 10 10 12 12 12 12 12 11 11 11 10 10 11 10 8 8 7 8 6 4 3 2 2 4 6 7 7 6 6 6 6 7 7 7 7 7 6 5 5 5
21 21 20 20 19 18 18 18 18 17 17 16 16 16 16 15 14 14 14 14 13 13 13 12 13 13 12 14 16 16 16 14 14 14 14 14 13 14 15 14 13 13 13 12 12 13 12 11 11 10 12 12 13 12 12 11 11 12 11 10 11 10 9 8 7 7 7 5 3 3 2 4 6 6 6 6 6 6 6 6 6 6 7 6 6 5 5 5
22 21 21 20 19 19 18 18 18 17 17 16 16 16 16 15 15 15 15 15 15 14 13 13 15 13 11 15 16 15 16 15 15 15 15 15 15 15 14 14 14 14 14 12 13 14 12 11 11 10 12 13 14 14 12 11 11 13 13 12 11 11 10 9 7 7 7 6 4 4 3 4 6 6 5 6 5 5 5 6 6 6 6 6 5 5 5 5
22 22 21 21 20 19 19 18 18 17 16 16 16 16 16 15 15 15 16 17 18 17 14 14 17 14 12 15 17 16 17 16 16 16 16 16 16 15 15 15 15 15 14 12 13 14 13 12 12 12 12 14 15 15 12 10 11 14 14 13 12 12 11 10 8 7 8 6 5 6 4 5 6 6 6 6 6 5 5 6 6 6 6 6 6 5 5 5
22 22 22 21 21 20 19 19 19 18 17 16 16 17 16 15 15 15 15 18 19 18 17 16 17 16 14 15 17 18 18 18 17 17 17 17 17 16 15 16 16 15 14 12 11 12 14 13 13 14 12 12 14 13 11 10 10 13 14 13 12 12 10 11 10 8 9 8 6 7 6 6 7 6 6 6 6 6 6 6 6 6 6 6 6 6 5 4
22 22 22 22 21 21 20 20 19 18 17 16 17 18 17 16 16 16 16 18 18 19 19 18 18 18 16 16 17 19 19 19 19 19 18 18 18 16 15 17 16 14 14 13 11 12 14 14 14 14 11 10 11 12 12 12 12 13 13 13 12 11 9 10 10 10 9 9 7 8 8 7 7 7 7 7 7 7 6 6 6 6 6 6 6 6 5 5
23 22 22 22 21 21 20 20 20 18 17 17 18 18 18 17 16 16 17 18 18 19 20 19 19 19 18 18 18 20 20 20 20 20 20 19 18 17 16 17 16 15 15 15 13 12 14 14 14 13 12 12 12 12 13 12 12 13 13 13 12 12 11 10 11 11 10 10 8 8 9 8 8 8 8 8 8 7 7 7 7 7 7 7 7 6 5 5
23 22 22 22 22 21 21 21 20 18 17 17 19 19 19 18 17 17 18 18 18 19 19 19 19 19 19 18 19 22 21 20 21 21 22 21 19 16 16 18 16 15 15 16 15 14 12 12 12 12 13 14 13 12 13 11 11 13 13 13 11 12 14 12 11 11 11 11 10 10 10 9 9 10 10 10 9 9 9 9 9 9 8 8 8 7 6 6
23 22 21 22 22 21 21 20 19 18 18 18 19 19 19 18 17 17 17 18 18 19 19 20 19 19 20 18 20 22 20 19 21 21 22 21 19 16 15 17 16 15 16 17 16 14 11 10 12 13 13 14 13 12 13 12 11 12 14 14 12 12 13 12 11 11 11 12 12 12 11 10 10 12 11 10 10 11 11 11 12 11 10 10 9 9 8 7
22 22 21 21 21 21 20 19 18 19 19 18 17 18 19 18 18 18 17 17 18 19 19 20 20 20 20 20 21 22 20 19 20 21 23 22 20 17 15 15 14 14 16 17 15 12 10 10 12 13 14 14 13 12 13 12 10 9 11 13 13 12 12 12 12 12 12 12 12 14 12 9 10 12 12 12 12 13 13 13 14 13 12 12 11 10 10 9
22 21 21 21 21 20 19 19 19 20 19 17 17 17 18 18 18 18 17 17 19 19 19 20 19 20 21 21 23 22 19 20 20 21 24 22 20 18 15 16 14 13 15 15 13 12 11 13 13 13 14 13 13 12 12 12 10 7 7 10 11 12 12 12 13 12 10 9 10 13 14 11 10 11 12 14 13 14 14 15 16 15 14 14 14 13 12 10
22 21 21 21 21 20 20 20 20 20 19 18 17 18 17 18 19 19 17 17 18 18 20 20 19 20 21 22 25 21 17 20 21 21 24 22 21 19 16 17 17 14 16 15 12 11 13 15 15 14 14 12 11 10 10 12 10 6 6 8 9 10 11 11 12 10 9 9 11 12 13 13 12 11 11 13 14 15 16 16 17 17 17 16 16 15 14 12
22 21 21 21 21 21 21 21 20 20 19 18 17 17 17 18 19 19 18 17 17 18 20 20 20 22 22 23 26 21 17 20 20 20 24 23 21 19 15 17 17 16 18 16 11 11 14 13 14 15 13 11 9 7 8 9 8 7 7 7 7 8 9 9 10 9 9 11 12 12 13 12 12 11 11 12 14 15 16 16 17 18 18 17 17 17 16 14
22 21 20 20 20 20 20 21 21 21 20 19 18 17 17 19 19 20 19 18 17 18 20 21 22 24 25 25 25 22 20 20 19 21 23 22 22 20 15 16 16 15 17 16 10 10 13 12 12 13 11 10 9 7 7 7 8 9 8 7 7 6 7 8 9 9 10 12 12 12 13 13 12 11 11 12 14 15 15 15 17 18 19 19 18 17 17 16
22 21 20 20 20 20 20 20 20 20 21 20 18 17 18 19 20 21 20 18 17 18 21 23 22 24 26 26 24 23 22 21 21 23 23 22 22 21 17 16 16 15 16 16 11 11 14 13 13 13 11 10 10 8 7 8 10 9 8 8 7 6 7 8 8 10 11 11 10 10 12 14 14 13 12 12 13 14 14 15 16 18 19 19 19 18 17 17
22 21 20 20 20 21 21 20 19 19 20 19 18 18 18 19 21 22 20 18 17 19 21 23 24 25 27 26 25 24 23 22 23 25 24 22 21 21 19 18 18 17 16 16 14 13 14 14 14 13 12 13 12 9 9 9 10 10 9 10 9 7 8 9 9 10 11 10 8 9 11 14 15 15 16 15 14 14 14 14 15 17 18 19 19 19 18 17
21 21 20 20 21 22 22 22 21 21 21 20 19 19 19 20 21 21 21 19 17 18 20 22 24 26 26 26 25 24 24 23 24 25 25 24 21 21 21 19 19 18 16 17 16 15 14 13 14 15 14 15 14 12 11 10 11 11 11 11 10 8 8 10 10 10 11 10 8 8 10 13 14 14 15 15 14 15 15 14 14 15 18 19 19 20 19 18
21 20 19 19 20 21 22 22 22 22 22 21 21 20 21 21 20 20 22 20 17 18 20 21 24 26 26 26 25 25 24 23 25 26 25 25 22 22 22 20 20 18 15 16 17 16 15 13 16 16 14 16 15 12 12 11 11 11 11 11 10 9 9 9 8 9 10 9 8 8 10 12 12 10 10 11 11 12 14 15 15 15 16 18 19 20 21 20
21 19 17 18 19 20 22 22 22 22 22 23 22 21 22 22 19 19 21 20 18 19 20 21 24 26 27 25 24 26 24 22 26 26 25 26 23 22 23 21 22 19 15 16 16 16 15 13 16 15 13 17 16 12 12 12 11 10 9 10 10 9 9 8 7 7 8 8 8 9 11 12 11 11 11 11 11 12 13 14 16 16 17 18 19 21 22 21
19 17 16 18 19 19 21 22 23 23 23 23 23 23 23 21 18 18 18 19 19 18 19 22 25 25 26 25 24 27 24 22 26 26 24 26 24 23 23 21 23 22 17 15 15 15 15 12 13 14 13 16 16 13 13 11 9 10 10 11 9 7 8 8 7 7 8 10 9 9 11 12 12 12 11 11 11 12 13 14 16 17 18 19 20 21 22 22
16 15 16 17 19 19 20 22 23 24 24 24 24 24 22 21 19 18 18 19 19 18 19 22 24 25 26 25 25 28 26 23 26 26 24 25 24 24 23 21 22 23 21 17 14 15 15 12 13 16 15 14 14 14 14 12 9 9 11 11 8 7 8 8 8 7 8 10 8 8 11 11 9 9 8 9 11 12 12 14 15 16 17 19 20 21 22 22
15 15 15 16 18 19 20 22 24 24 24 24 25 24 22 21 21 19 19 19 19 19 20 20 22 25 25 25 26 28 28 25 26 26 24 24 23 23 24 22 21 23 23 20 16 15 16 13 12 16 16 14 15 15 14 13 12 11 10 10 9 9 9 9 9 8 8 9 8 8 9 10 10 9 8 9 10 11 11 12 14 15 16 17 19 20 21 21
15 15 15 15 16 18 20 23 24 24 24 25 25 24 23 22 22 21 20 20 20 20 20 19 20 23 25 24 25 28 29 26 26 26 24 23 22 22 24 23 21 23 24 23 19 16 17 15 12 14 17 16 16 17 16 15 14 13 11 11 11 10 9 8 9 9 8 9 9 7 7 9 9 8 7 9 10 10 11 11 12 14 15 16 17 19 20 20
14 14 14 13 15 17 20 22 23 24 25 25 24 23 23 23 22 22 21 21 21 20 20 19 19 21 24 24 23 25 28 27 26 26 25 23 22 20 22 23 22 22 23 23 22 18 17 17 13 13 16 17 17 18 17 15 16 15 14 13 12 11 10 10 10 9 9 9 8 8 8 8 6 6 8 10 10 10 11 11 11 13 14 15 16 17 19 20
14 14 13 13 14 17 19 21 23 24 25 24 24 23 23 22 22 22 21 21 22 21 20 19 19 20 22 24 24 24 27 27 26 25 24 24 23 20 20 22 22 21 21 22 23 20 18 18 16 14 15 18 18 17 16 15 15 16 15 14 14 13 11 11 11 9 9 9 8 8 9 9 7 7 8 9 9 10 10 11 11 11 13 14 14 15 17 19
14 14 13 13 15 17 18 20 22 23 24 23 22 23 23 22 22 22 21 21 22 22 21 20 20 20 21 23 23 23 26 27 26 25 24 23 24 21 19 20 22 22 21 21 23 21 19 18 19 17 16 16 15 14 14 14 15 15 15 15 15 14 14 13 11 9 9 9 9 9 10 9 7 7 7 8 9 10 10 11 11 11 11 12 13 14 15 17
14 14 13 14 16 18 18 19 21 23 23 22 21 22 23 23 23 22 21 22 21 21 21 21 21 20 21 21 21 23 26 25 25 25 24 23 23 20 19 20 21 22 21 21 21 21 19 20 20 19 16 15 14 14 15 16 16 17 17 17 16 15 15 14 11 9 9 9 9 9 10 9 7 7 8 9 10 11 11 12 12 12 11 12 13 14 14 15
15 15 15 15 16 18 19 18 20 22 23 22 22 23 24 23 23 23 22 22 21 21 21 20 20 20 20 20 21 23 24 23 24 24 23 23 21 19 19 21 21 22 21 19 19 20 20 21 21 19 18 17 17 16 17 17 18 19 18 19 19 17 15 14 11 11 12 12 11 11 11 8 7 9 11 11 10 11 12 12 12 13 13 12 13 14 14 15
15 15 16 16 16 19 19 17 18 20 21 22 23 23 23 24 23 22 22 22 22 21 21 20 20 20 20 20 20 22 23 21 21 22 22 21 21 19 20 21 22 23 21 18 17 20 20 20 22 22 20 19 19 19 19 18 18 19 19 19 20 20 18 16 14 13 14 13 13 13 13 10 8 9 11 11 11 12 13 13 14 14 14 14 14 14 15 15
15 15 15 16 17 19 19 18 19 19 19 21 22 22 23 24 23 22 22 22 22 22 22 21 20 20 21 21 21 22 24 22 20 20 21 21 20 19 19 21 22 23 20 18 19 20 19 20 22 23 22 21 19 19 19 19 19 20 21 20 20 21 20 18 16 15 14 12 14 15 15 15 13 12 12 12 13 14 15 16 16 15 15 16 15 16 16 16
15 15 15 15 16 18 19 19 20 20 19 20 20 20 22 23 23 22 22 22 21 21 22 22 21 21 21 22 22 22 23 23 21 20 21 20 19 18 18 19 21 21 20 20 21 20 19 20 22 24 24 22 19 17 18 20 21 21 21 21 21 21 21 20 19 17 14 14 15 14 14 17 17 16 16 15 15 16 17 17 18 17 17 17 17 17 17 18
15 15 15 15 16 16 17 18 18 19 20 20 20 20 21 22 23 23 22 22 22 21 21 22 22 21 20 20 21 21 22 23 22 21 20 19 19 19 18 18 19 20 20 21 22 21 20 20 21 23 24 22 20 19 19 20 21 21 22 22 22 22 22 22 21 18 16 17 17 13 13 17 18 17 18 18 18 19 19 19 19 19 19 19 19 19 19 20
15 15 15 16 17 16 16 17 18 19 20 20 20 20 21 21 22 22 22 22 23 21 21 21 21 20 20 20 21 21 21 21 22 21 19 20 20 20 19 18 18 19 20 21 21 20 20 20 20 21 22 21 20 21 21 21 21 22 22 22 22 22 22 22 21 19 18 19 19 17 17 19 20 20 20 20 20 21 20 20 20 21 21 20 20 20 21 21
15 15 15 17 18 17 16 17 18 19 19 19 20 20 21 21 21 21 22 22 22 21 21 21 20 20 20 21 21 20 19 18 19 19 18 19 20 19 19 18 16 18 20 20 19 19 19 19 18 19 20 20 20 20 21 21 21 21 21 21 21 21 21 21 20 19 18 19 19 20 21 21 21 20 19 19 21 21 21 21 22 21 21 21 21 22 22 22
15 16 16 17 17 17 17 17 18 18 18 19 19 19 20 20 20 21 22 22 21 21 20 21 21 20 21 22 21 20 18 18 19 19 19 20 19 18 19 18 16 17 19 19 19 20 20 18 17 19 20 19 19 20 20 20 21 21 21 21 21 21 20 20 19 18 19 20 19 20 21 20 19 18 19 21 22 22 23 23 22 21 20 21 22 22 22 22
15 16 17 17 17 17 17 18 18 18 17 17 18 18 19 19 19 20 22 23 22 22 21 21 21 21 22 22 21 20 20 21 21 20 20 20 20 20 20 19 19 18 18 18 19 19 20 19 18 19 20 18 18 19 18 19 20 21 21 21 21 21 20 20 19 19 20 20 20 20 20 19 19 20 21 22 22 22 23 22 21 21 20 21 21 21 21 21
Wind_Direction
284 282 281 280 279 280 282 285 288 291 294 298 300 301 300 299 297 294 290 287 284 283 282 281 281 282 282 283 284 283 283 271 255 246 238 230 217 204 192 185 179 172 170 167 163 162 162 163 160 155 145 138 130 122 124 127 127 123 115 112 103 95 101 109 113 104 110 122 120 122 115 102 101 96 99 100 99 105 105 98 100 107 109 113 122 131 134 135
284 282 281 280 279 280 281 283 286 289 292 295 298 300 299 298 296 292 289 285 283 280 279 279 278 278 279 279 279 279 278 266 254 249 237 222 209 202 191 181 177 175 173 170 169 168 166 162 160 156 147 139 127 122 126 127 129 125 106 103 96 92 99 101 107 108 113 122 120 119 111 99 99 100 108 105 104 109 104 105 112 114 115 118 127 134 137 139
286 283 282 281 280 279 280 281 284 287 290 293 296 297 296 296 294 291 287 284 280 277 275 274 274 274 274 274 274 273 272 266 255 247 233 214 202 195 187 179 176 177 178 176 175 176 172 158 159 158 151 143 130 128 132 128 125 121 105 100 99 98 104 101 107 112 105 117 122 115 106 97 96 98 102 106 112 112 107 117 124 126 131 131 134 137 140 144
286 284 282 282 280 280 280 281 284 286 288 291 293 294 294 294 292 289 285 281 277 273 270 269 269 268 268 267 264 264 265 263 248 231 219 206 196 189 185 179 176 180 181 180 177 177 173 161 160 161 157 147 137 136 136 131 124 115 98 101 108 106 106 105 108 112 108 116 120 113 106 98 94 92 93 104 116 110 105 124 137 139 141 140 141 142 145 150
286 284 283 282 281 280 280 282 284 285 286 289 291 292 292 293 290 287 281 276 272 266 263 262 262 261 258 254 249 247 244 246 225 198 198 196 189 185 182 177 177 180 180 179 176 175 174 168 166 164 161 151 145 146 138 133 130 113 98 101 109 106 105 108 110 113 116 118 116 112 104 99 95 83 80 90 99 99 99 121 138 144 146 145 145 147 149 153
287 284 283 283 281 281 280 281 282 283 285 287 289 290 290 291 289 284 277 271 265 260 256 255 255 251 245 241 236 224 219 222 164 171 185 184 182 181 179 176 176 178 177 177 177 177 176 173 173 167 160 154 151 150 138 136 138 119 110 108 107 104 107 112 114 117 120 117 112 108 101 100 95 79 74 82 88 91 95 115 133 142 146 146 146 150 153 156
288 284 283 282 282 281 280 280 281 282 284 285 287 288 289 290 287 281 272 264 259 255 251 249 247 241 234 229 223 215 220 231 194 173 178 178 178 178 177 175 176 176 175 177 178 179 178 178 178 169 160 155 153 149 141 142 141 124 119 117 112 109 111 114 116 118 116 110 108 107 103 94 86 83 84 86 88 90 97 114 130 137 143 145 147 152 155 157
288 285 283 282 282 282 280 280 280 281 283 284 286 286 287 288 284 277 266 258 255 252 249 245 240 233 226 221 218 215 219 224 207 182 180 178 177 176 175 175 176 177 176 177 178 176 178 181 177 171 165 157 153 149 145 144 135 123 122 123 119 114 114 117 116 115 111 107 105 101 91 76 77 89 92 92 94 95 103 116 127 135 141 145 149 153 155 158
289 286 283 281 281 282 281 279 279 280 282 284 284 284 285 285 280 270 259 253 252 251 248 242 235 227 220 218 221 219 212 210 206 194 183 178 177 176 176 176 177 176 174 174 175 176 178 180 174 173 165 156 157 153 152 150 132 126 128 129 126 120 119 118 115 113 108 103 100 93 82 75 83 93 91 94 101 103 109 117 125 134 140 145 150 153 157 161
289 288 284 282 281 281 280 279 278 279 281 282 283 282 282 281 274 262 253 249 250 250 246 238 228 219 216 215 217 214 203 203 203 194 184 179 175 174 177 178 175 173 171 170 174 177 177 175 171 170 161 157 161 157 159 157 137 132 131 131 129 125 122 118 116 113 106 101 96 88 82 81 87 95 96 100 105 107 112 118 125 132 137 142 147 152 158 163
289 288 285 282 281 281 280 278 278 278 280 281 280 279 278 277 266 254 246 243 246 247 240 230 218 213 214 212 212 207 197 199 197 188 181 176 173 173 177 177 172 171 171 171 174 174 172 169 167 171 167 164 161 153 152 146 139 137 133 133 134 130 126 122 120 116 108 104 97 89 85 82 84 93 102 108 109 110 113 118 124 127 130 136 141 147 156 163
288 287 285 283 281 281 279 277 276 277 279 278 277 275 273 271 259 247 240 238 240 239 230 218 210 209 210 211 212 205 193 195 191 181 176 173 172 172 175 173 170 172 173 172 172 172 168 166 172 175 168 167 163 155 154 150 144 142 139 139 139 136 130 127 126 121 118 110 98 95 88 79 84 96 106 111 111 112 115 120 123 123 125 129 133 137 147 157
288 287 285 284 282 281 278 276 275 276 277 276 273 270 267 263 253 241 235 233 233 231 222 211 207 207 208 210 210 204 195 193 187 178 176 176 173 171 172 170 170 172 173 172 170 170 167 167 176 173 165 169 164 158 160 160 154 151 150 148 148 146 141 140 138 130 127 115 92 89 84 78 90 103 110 116 116 117 117 123 128 127 127 128 130 134 140 149
288 287 285 284 282 280 278 276 274 274 274 273 270 265 261 255 247 238 231 230 229 226 219 214 212 207 210 207 200 200 197 191 186 181 180 179 172 170 170 169 171 171 170 168 168 170 168 167 174 172 171 172 163 159 160 164 164 161 162 162 161 159 154 155 155 147 141 125 96 72 79 87 100 107 113 119 120 120 119 127 135 135 134 132 133 137 139 146
287 287 285 283 282 280 278 275 273 272 272 270 265 260 256 249 242 235 229 227 225 224 219 217 215 209 212 206 196 198 194 189 187 183 182 178 172 170 169 169 171 170 168 167 168 171 169 169 173 171 169 168 167 167 165 169 173 171 173 172 173 171 162 165 170 168 156 134 124 43 78 96 107 110 115 121 122 122 119 127 138 141 142 139 139 144 143 148
286 286 285 283 281 279 277 275 272 271 269 266 261 255 249 244 240 234 229 225 222 221 218 217 214 213 215 203 195 197 193 191 188 183 183 181 178 174 170 170 172 171 170 170 172 173 170 172 172 169 169 171 173 173 170 177 182 184 187 180 178 181 173 173 180 183 181 159 156 87 92 108 118 117 115 123 127 125 119 126 138 143 146 144 142 146 148 151
285 285 284 282 280 279 277 274 272 270 267 263 257 249 244 240 237 233 227 222 221 221 219 221 216 214 214 202 197 198 194 192 186 182 183 184 184 177 172 173 174 173 171 172 176 177 175 175 172 171 177 180 179 177 180 186 187 190 196 188 183 185 180 176 180 184 188 185 170 150 117 114 127 131 124 128 132 129 124 125 136 144 148 150 147 147 150 153
283 283 283 281 279 278 276 273 271 269 266 260 252 244 240 238 234 230 223 219 221 220 220 222 214 211 210 202 199 196 191 190 187 185 183 184 184 178 176 179 177 175 174 177 182 183 182 180 179 181 184 187 186 186 192 193 189 192 195 189 185 187 188 186 182 183 189 195 197 195 164 133 138 142 137 138 140 137 134 130 134 143 149 151 151 150 150 153
282 282 282 280 277 276 274 272 270 267 265 257 247 240 235 233 230 224 219 219 220 219 219 214 207 210 208 200 198 194 191 189 187 187 184 182 182 180 181 181 179 181 182 183 186 188 188 186 188 189 186 189 193 195 201 204 198 196 195 191 189 192 198 198 191 192 199 209 215 210 189 163 159 157 153 153 151 149 147 142 139 144 151 154 154 154 152 152
283 280 280 278 275 274 273 271 268 266 261 251 241 236 231 231 228 220 219 223 224 225 226 216 209 214 208 199 197 194 191 190 189 189 186 183 182 181 182 182 183 188 190 189 188 190 194 194 195 195 191 192 196 200 209 213 203 197 197 196 196 200 204 204 205 207 210 219 215 208 205 184 174 171 169 167 166 169 163 156 153 152 156 160 160 160 157 156
286 281 278 277 273 271 270 269 267 263 256 245 238 233 231 232 229 225 226 226 224 223 224 219 214 218 214 203 199 194 192 193 194 191 187 185 184 184 184 185 187 192 195 193 187 189 198 203 201 199 197 195 196 201 207 208 202 200 201 202 205 210 209 205 210 215 213 223 219 207 213 197 182 182 181 182 184 185 183 176 171 166 165 165 165 164 162 159
288 283 278 275 272 269 267 267 265 259 250 241 236 233 230 230 230 229 228 227 225 220 219 218 215 218 215 207 202 198 196 196 195 192 189 188 188 188 188 189 191 192 193 193 189 190 199 207 205 200 198 192 192 198 202 205 206 205 204 207 211 211 209 207 213 218 215 224 224 209 213 202 193 199 197 200 201 199 201 197 189 181 177 177 176 174 173 170
288 285 280 274 271 269 265 265 263 253 243 238 237 234 230 229 230 227 224 226 227 220 216 216 214 213 210 206 202 199 199 197 195 192 189 190 191 192 191 192 193 192 192 195 196 194 200 207 203 197 194 192 194 197 201 206 208 208 208 211 214 208 212 220 218 218 216 223 227 214 214 212 210 217 214 214 216 212 213 213 209 203 195 192 191 191 191 189
286 286 282 276 271 267 263 263 257 243 238 240 239 235 230 230 230 226 223 225 223 217 213 212 211 210 206 203 199 197 199 198 196 193 190 192 192 192 194 194 196 195 195 198 199 200 201 199 191 190 194 196 197 196 200 205 206 212 215 218 222 215 222 231 219 214 218 224 227 218 218 223 221 221 219 221 226 223 220 220 221 218 211 207 205 207 209 206
286 284 283 278 270 266 263 258 245 237 241 243 238 232 228 229 229 226 224 224 220 214 210 209 209 208 203 199 195 194 197 199 199 194 191 193 192 191 194 196 199 199 196 196 198 201 198 188 185 188 192 196 198 198 202 207 207 213 219 224 234 232 231 230 213 212 224 227 224 218 224 230 224 223 221 221 227 229 228 227 226 224 219 217 216 217 218 219
285 283 283 278 271 266 259 246 237 241 244 239 233 228 227 230 228 224 222 222 218 209 205 205 205 202 199 196 192 192 197 199 198 194 192 194 194 193 195 195 200 202 196 192 198 204 196 188 189 189 190 194 200 202 201 206 214 217 217 222 233 235 230 219 210 218 230 230 222 219 228 238 230 228 225 223 228 230 232 232 229 227 225 223 222 221 221 221
285 282 281 277 271 264 251 241 242 243 239 232 229 227 229 230 225 221 220 220 216 207 202 203 203 200 197 194 189 192 198 194 193 194 193 195 195 196 199 195 196 199 190 188 198 204 192 187 190 192 193 196 203 207 202 209 221 221 214 218 224 226 222 215 214 223 229 229 224 220 227 239 242 239 229 224 229 232 233 234 232 229 228 227 227 224 222 222
284 282 280 276 270 260 247 242 243 240 233 231 228 228 230 227 221 218 219 219 212 205 203 202 201 199 196 193 190 195 195 187 191 195 193 195 195 196 200 196 194 191 185 187 195 196 191 190 191 192 196 199 204 203 196 205 219 219 211 210 212 216 216 215 218 224 228 230 229 223 225 240 246 244 234 228 231 236 236 234 232 230 228 228 228 227 225 224
283 281 278 275 268 256 244 239 238 234 230 228 228 229 229 223 218 216 218 219 210 205 204 201 200 198 195 193 195 199 195 190 195 193 190 195 195 196 199 195 193 188 186 196 204 195 195 198 196 195 199 200 196 190 192 204 213 209 199 192 193 205 212 218 223 228 231 233 235 226 224 242 250 239 234 236 238 241 240 237 233 230 228 228 228 229 228 227
282 279 277 273 263 250 242 237 235 232 228 226 228 229 224 218 216 215 214 215 209 204 202 200 199 196 194 194 197 200 198 195 194 188 188 193 193 195 198 193 193 189 190 202 211 195 192 199 201 201 203 196 184 187 203 203 196 195 193 187 191 204 214 225 230 231 235 237 238 229 224 240 254 247 237 241 248 248 243 237 234 231 229 229 228 229 229 228
280 276 273 268 256 245 240 235 233 228 223 223 226 224 219 215 215 216 213 211 210 205 201 200 198 195 194 195 197 199 198 195 191 188 190 192 192 195 195 192 194 193 193 202 203 192 191 196 199 200 201 192 182 189 202 195 190 196 201 199 202 210 217 224 226 230 240 242 236 234 234 241 251 254 249 249 251 250 246 240 235 232 231 230 229 229 229 229
279 275 270 262 251 242 236 231 228 223 218 221 223 218 216 215 215 216 211 207 208 205 201 201 199 196 196 197 198 198 197 195 192 191 191 192 193 195 195 193 193 192 195 198 196 192 194 196 195 197 203 200 191 193 200 200 202 208 210 209 212 214 217 225 227 232 243 243 235 241 246 248 253 256 257 260 256 249 248 246 240 235 233 231 230 230 229 230
279 275 267 256 245 238 234 230 227 223 221 222 220 215 215 218 216 212 209 206 206 205 203 202 199 197 197 198 199 198 196 196 194 193 193 194 194 196 198 199 197 197 199 198 195 193 194 198 199 200 207 209 205 204 205 207 212 215 213 212 218 220 223 231 232 237 246 243 239 246 250 256 261 258 255 261 260 252 249 246 243 239 235 234 231 230 230 230
279 273 263 250 242 236 231 228 224 222 221 219 217 214 216 219 215 209 209 210 208 206 204 201 199 198 199 200 199 196 196 196 194 194 194 195 198 198 199 201 201 203 204 200 200 199 199 205 204 204 208 208 209 213 211 209 210 214 214 216 225 230 232 237 237 240 247 241 234 243 250 256 261 258 253 260 262 255 251 248 246 243 239 238 233 231 231 231
278 269 256 246 239 233 227 223 220 218 216 214 214 214 215 215 213 210 209 209 207 205 203 201 200 199 200 202 200 197 199 199 196 197 198 199 201 200 200 202 202 205 205 200 202 204 208 210 203 206 211 206 209 215 212 210 211 213 218 222 231 237 234 243 255 255 260 260 246 243 251 256 262 263 256 257 258 254 252 250 247 244 241 239 237 233 232 233
275 265 251 240 233 228 223 220 216 214 213 213 214 214 214 213 211 210 208 206 206 206 204 201 201 201 201 202 202 200 202 202 198 199 202 203 205 204 203 204 203 206 208 203 203 207 212 210 199 204 211 210 213 211 208 215 216 213 222 226 231 242 237 241 253 253 261 267 257 247 255 258 262 264 254 252 259 258 253 249 247 247 242 239 238 235 233 233
271 262 249 236 228 226 223 217 213 211 212 215 216 215 214 214 214 213 210 208 207 207 206 203 202 203 203 203 204 201 202 202 199 201 204 205 208 208 207 206 205 208 211 212 213 213 214 212 204 206 209 212 215 209 208 222 226 223 227 223 221 238 242 244 252 250 252 263 261 251 258 260 257 257 246 244 258 262 257 252 248 247 245 242 240 236 234 233
266 259 245 233 228 227 222 215 211 210 212 215 217 216 214 213 213 213 212 211 209 208 208 207 204 205 206 204 204 201 201 202 200 202 205 205 208 209 208 209 209 211 215 218 221 217 216 216 211 211 211 210 213 213 214 221 228 235 234 220 221 235 234 231 246 261 262 269 270 255 257 262 254 249 247 248 261 267 261 254 249 247 246 245 241 237 234 233
261 252 239 232 231 227 218 211 209 210 213 215 216 215 215 214 214 215 215 213 211 209 209 211 208 207 208 207 204 201 202 203 202 204 208 207 208 211 211 212 213 213 216 219 221 218 217 220 217 213 212 210 213 217 219 219 222 231 234 225 228 240 240 232 244 265 270 274 277 262 258 264 251 243 256 260 266 270 262 255 252 249 247 246 243 238 235 233
255 245 235 234 233 223 213 210 210 211 213 215 216 215 213 213 214 215 214 212 212 211 210 212 210 207 208 209 208 204 203 206 205 206 210 209 209 213 214 215 215 214 215 219 221 219 218 221 222 213 211 214 216 218 222 223 219 222 228 227 226 233 244 248 250 259 267 274 277 268 268 274 258 249 266 268 266 269 264 259 257 255 251 248 244 240 237 234
249 239 233 235 227 214 210 212 212 213 215 216 218 216 213 213 214 214 214 213 213 213 213 214 214 211 208 209 210 207 205 208 208 209 210 210 212 216 216 216 216 214 215 218 220 219 217 220 221 215 214 219 220 218 224 229 224 222 227 229 228 230 238 250 251 249 255 266 272 272 274 276 266 261 271 273 271 270 265 263 262 258 255 250 245 241 238 236
242 236 232 230 221 213 216 217 214 214 216 217 218 216 213 214 216 216 214 213 214 214 213 214 215 213 211 210 211 209 206 208 209 210 212 212 215 218 216 216 216 213 216 219 219 219 220 221 222 222 221 221 220 219 225 231 230 230 232 233 233 233 236 248 255 246 246 257 266 269 272 272 264 262 275 282 284 281 273 271 269 263 258 254 247 242 238 237
240 238 233 227 221 219 221 218 214 216 218 217 218 217 215 215 215 215 214 213 214 213 213 214 214 213 212 211 212 209 207 209 211 212 214 214 215 216 213 213 214 213 216 218 217 217 220 222 223 225 224 221 221 223 225 229 231 233 234 235 237 237 239 248 255 251 250 256 260 263 267 271 266 269 283 290 289 283 274 272 272 269 265 257 251 247 243 240
241 239 232 227 223 220 220 218 216 217 218 217 218 218 216 216 216 216 215 214 213 213 214 215 214 213 212 212 212 210 207 210 211 213 216 216 216 216 213 212 215 215 216 219 218 215 219 221 221 223 224 222 224 225 224 226 230 233 235 235 237 239 241 247 251 253 256 257 258 265 271 273 270 276 285 288 284 276 269 269 272 270 268 263 257 253 249 246
239 233 227 225 222 218 220 221 219 219 217 217 219 217 215 215 215 216 217 217 215 215 216 215 214 215 214 212 212 210 209 212 213 213 216 217 217 217 216 216 219 219 218 222 221 217 220 222 221 223 225 224 225 227 225 225 228 233 236 234 234 236 238 243 248 250 254 253 252 259 268 275 274 275 280 281 280 277 272 271 271 268 268 269 265 259 253 250
236 229 223 222 219 218 221 222 221 221 219 217 217 216 216 215 212 213 217 217 215 217 218 217 217 218 215 212 212 210 210 214 215 213 214 216 215 216 218 219 221 222 220 222 222 220 223 225 223 226 230 230 232 232 228 228 230 231 233 232 233 235 236 241 246 249 250 252 253 255 262 272 275 276 281 281 280 281 278 275 272 267 265 266 266 263 257 253
232 228 225 222 220 219 219 219 220 222 220 217 217 216 216 217 215 213 215 216 215 217 218 217 217 217 214 213 213 212 210 213 215 214 214 215 213 212 215 218 219 220 220 222 222 221 225 226 225 227 231 234 237 235 229 231 234 234 234 234 234 234 235 238 243 247 248 254 261 260 258 266 273 279 284 284 283 285 283 279 276 271 265 263 264 262 258 255
230 227 225 224 222 219 218 219 221 222 219 218 218 217 216 216 216 215 214 216 217 217 218 215 214 216 216 216 216 214 211 212 215 215 215 215 213 210 211 215 216 216 218 221 221 223 227 228 226 227 231 233 236 236 234 236 238 239 239 237 234 233 234 237 242 246 249 256 265 266 261 265 273 281 285 286 286 286 284 281 279 275 269 265 261 259 256 255
231 227 224 224 224 222 222 223 224 222 220 219 219 218 218 216 215 215 216 218 217 217 219 217 215 217 218 218 220 217 213 215 216 215 216 218 216 215 214 216 216 216 218 220 221 225 229 230 228 229 231 232 234 235 236 237 239 241 241 238 234 233 234 237 243 247 250 257 265 268 267 271 277 282 284 285 286 285 284 282 279 274 270 265 260 257 255 253
231 229 227 227 225 223 224 224 223 221 219 220 220 219 219 218 216 215 216 219 218 217 220 221 220 222 220 217 219 217 215 220 220 218 221 221 219 219 219 219 220 219 219 221 221 223 228 231 230 229 231 232 233 234 235 236 237 238 237 235 233 233 234 239 245 249 252 259 265 268 271 275 279 280 281 283 284 283 281 279 276 273 270 266 261 257 254 252
232 230 229 229 224 222 224 222 221 220 218 218 219 218 218 218 218 218 217 218 220 219 221 224 224 224 220 216 217 218 220 225 226 226 228 226 225 225 223 225 228 224 220 222 223 222 225 230 229 228 231 232 232 232 232 233 235 234 232 231 231 234 238 242 247 250 254 260 265 268 272 276 278 279 281 284 286 283 279 276 275 274 272 268 265 261 256 253
234 230 228 229 224 221 223 221 219 220 218 218 219 219 219 219 219 221 219 218 219 220 223 227 226 224 220 217 220 226 230 231 230 230 230 228 229 230 228 230 233 231 225 224 225 224 225 228 227 228 233 231 227 228 229 229 234 236 233 232 234 238 242 246 249 252 256 260 264 268 271 276 281 283 283 285 287 285 281 278 275 274 272 269 267 263 259 256